TimeEDT,TemperatureF,Dew PointF,Humidity,Sea Level PressureIn,VisibilityMPH,Wind Direction,Wind SpeedMPH,Gust SpeedMPH,PrecipitationIn,Events,Conditions,WindDirDegrees,DateUTC
12:51 AM,72.0,69.1,91,29.84,10.0,South,3.5,-,N/A,,Clear,180,2013-09-01 04:51:00
1:51 AM,71.1,69.1,93,29.83,10.0,Calm,Calm,-,N/A,,Clear,0,2013-09-01 05:51:00
2:51 AM,70.0,68.0,93,29.84,9.0,SSE,3.5,-,N/A,,Partly Cloudy,160,2013-09-01 06:51:00
3:51 AM,70.0,68.0,93,29.83,10.0,South,3.5,-,N/A,,Mostly Cloudy,190,2013-09-01 07:51:00
4:51 AM,70.0,68.0,93,29.83,10.0,SSW,3.5,-,N/A,,Overcast,200,2013-09-01 08:51:00
5:51 AM,69.1,66.9,93,29.83,9.0,Calm,Calm,-,N/A,,Clear,0,2013-09-01 09:51:00
6:51 AM,70.0,66.9,90,29.84,10.0,Calm,Calm,-,N/A,,Clear,0,2013-09-01 10:51:00
7:51 AM,70.0,68.0,93,29.84,8.0,Calm,Calm,-,N/A,,Clear,0,2013-09-01 11:51:00
8:51 AM,72.0,68.0,87,29.85,10.0,South,4.6,-,N/A,,Clear,180,2013-09-01 12:51:00
9:51 AM,75.9,68.0,76,29.84,10.0,SSW,5.8,-,N/A,,Clear,210,2013-09-01 13:51:00
10:51 AM,75.9,66.9,74,29.84,10.0,SSW,4.6,-,N/A,,Clear,210,2013-09-01 14:51:00
11:41 AM,78.8,68.0,69,29.87,10.0,Calm,Calm,-,N/A,,Mostly Cloudy,0,2013-09-01 15:41:00
11:51 AM,79.0,68.0,69,29.85,10.0,WSW,5.8,-,N/A,,Mostly Cloudy,240,2013-09-01 15:51:00
12:51 PM,79.0,68.0,69,29.84,10.0,WSW,6.9,-,N/A,,Mostly Cloudy,250,2013-09-01 16:51:00
1:51 PM,81.0,70.0,69,29.84,10.0,SSW,4.6,-,N/A,,Partly Cloudy,210,2013-09-01 17:51:00
2:51 PM,81.0,68.0,65,29.82,10.0,SSW,5.8,-,N/A,,Scattered Clouds,210,2013-09-01 18:51:00
3:51 PM,82.9,69.1,63,29.80,10.0,SW,8.1,-,N/A,,Mostly Cloudy,220,2013-09-01 19:51:00
4:51 PM,82.9,68.0,60,29.79,10.0,SSW,5.8,-,N/A,,Clear,210,2013-09-01 20:51:00
5:51 PM,82.9,68.0,60,29.78,10.0,SW,6.9,-,N/A,,Partly Cloudy,220,2013-09-01 21:51:00
6:51 PM,82.0,68.0,62,29.79,10.0,SW,4.6,-,N/A,,Clear,230,2013-09-01 22:51:00
7:51 PM,77.0,70.0,79,29.80,10.0,South,4.6,-,N/A,,Partly Cloudy,170,2013-09-01 23:51:00
8:51 PM,75.9,68.0,76,29.82,10.0,Calm,Calm,-,N/A,,Clear,0,2013-09-02 00:51:00
9:51 PM,73.0,69.1,87,29.81,10.0,Calm,Calm,-,N/A,,Clear,0,2013-09-02 01:51:00
10:51 PM,72.0,70.0,93,29.83,10.0,Calm,Calm,-,N/A,,Partly Cloudy,0,2013-09-02 02:51:00
11:51 PM,72.0,69.1,91,29.83,10.0,Calm,Calm,-,N/A,,Clear,0,2013-09-02 03:51:00